Weather History for DeKalb, IL

Change the Weather History Date:

Wednesday, December 4, 2013

  Actual Average (KARR) Record (KARR)
Temperature  
Mean Temperature 42 °F 29 °F  
Max Temperature 52 °F 37 °F 66 °F (1998)
Min Temperature 32 °F 21 °F 2 °F (2006)
Degree Days  
Heating Degree Days 22 36  
Month to date heating degree days 142  
Since 1 July heating degree days 1556  
Cooling Degree Days 0 0  
Month to date cooling degree days 0  
Year to date cooling degree days 655  
Moisture  
Dew Point 45 °F    
Average Humidity 98    
Maximum Humidity 100    
Minimum Humidity 89    
Precipitation  
Precipitation 0.04 in 0.09 in 1.06 in (1999)
Month to date precipitation 0.37  
Year to date precipitation 35.27  
Sea Level Pressure  
Sea Level Pressure 29.62 in    
Wind  
Wind Speed 11 mph (South)    
Max Wind Speed 28 mph    
Max Gust Speed 37 mph    
Visibility 3 miles    
Events Fog , Rain    
T = Trace of Precipitation, MM = Missing Value Source: NWS Daily Summary

Daily Weather History Graph

Daily Weather History Graph

Search for Another Location

Airport:

Trip Planner

Search our weather history database for the weather conditions in past years. The results will help you decide how hot, cold, wet, or windy it might be!

Date:

Astronomy

Dec. 04, 2013 Rise Set
Actual Time 7:06 AM CST 4:23 PM CST
Civil Twilight 6:35 AM CST 4:55 PM CST
Nautical Twilight 6:00 AM CST 5:29 PM CST
Astronomical Twilight 5:26 AM CST 6:03 PM CST
Moon 8:33 AM CST (12/4) 6:34 PM CST (12/4)
Length of Visible Light 10h 19m
Length of Day
9h 17m
Waxing Crescent, 4% of the Moon is Illuminated
Dec 4
Waxing Crescent
Dec 9
First Quarter
Dec 17
Full
Dec 25
Last Quarter
Jan 1
New

Hourly Weather History & Observations

Time (CST) Temp. Windchill Dew Point Humidity Pressure Visibility Wind Dir Wind Speed Gust Speed Precip Events Conditions
12:15 AM 45.9 °F 41.2 °F 45.9 °F 100% 29.71 in 0.5 mi SSE 9.2 mph - N/A Fog Fog
12:35 AM 45.9 °F 41.2 °F 45.9 °F 100% 29.70 in 0.5 mi SSE 9.2 mph - N/A Fog Fog
12:55 AM 45.7 °F 41.5 °F 45.7 °F 100% 29.71 in 0.2 mi SSE 8.1 mph - N/A Fog Fog
1:15 AM 45.9 °F 42.3 °F 45.9 °F 100% 29.72 in 0.2 mi South 6.9 mph - N/A Fog Fog
1:35 AM 45.5 °F 42.5 °F 45.5 °F 100% 29.72 in 0.2 mi South 5.8 mph - N/A Fog Fog
2:15 AM 45.3 °F 42.3 °F 45.3 °F 100% 29.72 in 0.2 mi SSE 5.8 mph - N/A Fog Fog
2:55 AM 45.5 °F 44.2 °F 45.5 °F 100% 29.71 in 0.2 mi SSE 3.5 mph - N/A Fog Fog
3:15 AM 45.5 °F 41.3 °F 45.5 °F 100% 29.71 in 0.2 mi SSE 8.1 mph - N/A Fog Fog
3:35 AM 45.5 °F 40.3 °F 45.5 °F 100% 29.70 in 0.5 mi SE 10.4 mph - N/A Fog Fog
3:55 AM 45.5 °F 41.3 °F 45.5 °F 100% 29.69 in 0.5 mi SE 8.1 mph - N/A Fog Fog
4:15 AM 45.3 °F 41.6 °F 45.3 °F 100% 29.69 in 0.8 mi SE 6.9 mph - N/A   Overcast
4:35 AM 45.0 °F 40.1 °F 45.0 °F 100% 29.69 in 0.8 mi SE 9.2 mph - N/A   Overcast
4:55 AM 45.0 °F 39.7 °F 45.0 °F 100% 29.69 in 1.0 mi SE 10.4 mph - N/A   Overcast
5:15 AM 45.0 °F 40.1 °F 45.0 °F 100% 29.69 in 1.0 mi SE 9.2 mph - N/A   Overcast
5:35 AM 45.0 °F 40.1 °F 45.0 °F 100% 29.69 in 1.0 mi SE 9.2 mph - N/A   Overcast
5:55 AM 45.0 °F 40.1 °F 45.0 °F 100% 29.69 in 1.0 mi SE 9.2 mph - N/A   Overcast
6:15 AM 45.0 °F 39.3 °F 45.0 °F 100% 29.69 in 0.8 mi SE 11.5 mph - N/A   Overcast
6:35 AM 44.8 °F 39.0 °F 44.8 °F 100% 29.69 in 0.5 mi SE 11.5 mph - N/A Fog Fog
6:55 AM 44.6 °F 39.7 °F 44.6 °F 100% 29.68 in 0.5 mi SE 9.2 mph - N/A Fog Fog
7:15 AM 44.8 °F 39.4 °F 44.8 °F 100% 29.68 in 0.5 mi SE 10.4 mph - N/A Fog Fog
7:35 AM 44.8 °F 39.4 °F 44.8 °F 100% 29.67 in 0.2 mi SE 10.4 mph - N/A Fog Fog
7:55 AM 44.8 °F 40.4 °F 44.8 °F 100% 29.67 in 0.2 mi SE 8.1 mph - N/A Fog Fog
8:15 AM 45.0 °F 39.3 °F 45.0 °F 100% 29.67 in 0.2 mi SE 11.5 mph - N/A Fog Fog
9:35 AM 45.7 °F 41.0 °F 45.7 °F 100% 29.67 in 0.8 mi SSE 9.2 mph - 0.01 in Rain Light Rain
10:15 AM 45.9 °F 41.2 °F 45.9 °F 100% 29.67 in 0.5 mi SE 9.2 mph - N/A Fog Fog
10:35 AM 46.2 °F 41.2 °F 46.2 °F 100% 29.66 in 0.2 mi SSE 10.4 mph - N/A Fog Fog
10:55 AM 46.4 °F 41.1 °F 46.4 °F 100% 29.65 in 0.2 mi SSE 11.5 mph - N/A Fog Fog
11:15 AM 46.6 °F - 46.6 °F 100% 29.63 in 0.2 mi SSE 9.2 mph - N/A Fog Fog
11:35 AM 46.9 °F - 46.9 °F 100% 29.62 in 0.2 mi SSE 8.1 mph - N/A Rain Light Rain
11:55 AM 47.7 °F - 47.7 °F 100% 29.59 in 0.2 mi SSE 8.1 mph - N/A Fog Fog
12:15 PM 48.2 °F - 48.2 °F 100% 29.57 in 0.5 mi SSE 10.4 mph - N/A Rain Light Rain
12:35 PM 48.6 °F - 48.6 °F 100% 29.55 in 0.8 mi SE 9.2 mph - N/A Rain Light Rain
12:55 PM 48.9 °F - 48.9 °F 100% 29.55 in 0.5 mi SE 6.9 mph - N/A Rain Light Rain
1:15 PM 48.6 °F - 48.6 °F 100% 29.54 in 0.5 mi SSE 8.1 mph - N/A Rain Rain
1:35 PM 48.9 °F - 48.9 °F 100% 29.54 in 0.5 mi SSE 6.9 mph - 0.01 in Rain Rain
1:55 PM 49.3 °F - 49.3 °F 100% 29.53 in 0.5 mi SSE 9.2 mph - 0.01 in Rain Light Rain
2:15 PM 49.5 °F - 49.5 °F 100% 29.52 in 0.2 mi SE 8.1 mph - N/A Rain Light Rain
2:35 PM 50.0 °F - 50.0 °F 100% 29.50 in 0.2 mi SE 10.4 mph - N/A Rain Light Rain
2:55 PM 50.2 °F - 50.2 °F 100% 29.50 in 0.2 mi SSE 9.2 mph - N/A   Drizzle
3:15 PM 50.9 °F - 50.9 °F 100% 29.50 in 0.2 mi SSE 12.7 mph - N/A Rain Light Rain
3:35 PM 50.9 °F - 50.9 °F 100% 29.50 in 0.2 mi SSE 11.5 mph - N/A   Light Drizzle
3:55 PM 51.1 °F - 51.1 °F 100% 29.51 in 0.2 mi SSE 11.5 mph - N/A Rain Light Rain
4:15 PM 51.1 °F - 51.1 °F 100% 29.51 in 0.2 mi South 11.5 mph - 0.01 in Rain Rain
4:35 PM 51.8 °F - 51.8 °F 100% 29.52 in 1.0 mi South 16.1 mph 20.7 mph 0.01 in Rain Light Rain
4:55 PM 51.8 °F - 51.8 °F 100% 29.52 in 2.0 mi South 17.3 mph - 0.01 in   Overcast
5:15 PM 52.0 °F - 51.8 °F 99% 29.52 in 3.0 mi SSW 18.4 mph 24.2 mph 0.01 in   Drizzle
5:35 PM 51.8 °F - 51.1 °F 97% 29.53 in 5.0 mi SSW 16.1 mph 21.9 mph 0.01 in   Overcast
5:55 PM 51.4 °F - 50.7 °F 97% 29.53 in 5.0 mi SSW 17.3 mph 21.9 mph 0.01 in   Overcast
6:15 PM 51.1 °F - 50.5 °F 98% 29.53 in 4.0 mi SSW 15.0 mph 21.9 mph N/A   Overcast
6:35 PM 50.9 °F - 50.2 °F 97% 29.53 in 4.0 mi SSW 18.4 mph 21.9 mph N/A   Overcast
6:55 PM 51.1 °F - 50.4 °F 97% 29.54 in 4.0 mi SSW 18.4 mph 23.0 mph N/A   Overcast
7:15 PM 50.9 °F - 50.0 °F 97% 29.55 in 4.0 mi SSW 18.4 mph 24.2 mph N/A   Overcast
7:35 PM 50.9 °F - 49.6 °F 95% 29.55 in 4.0 mi SW 17.3 mph 23.0 mph N/A   Overcast
7:55 PM 50.4 °F - 48.4 °F 93% 29.57 in 4.0 mi WSW 27.6 mph 36.8 mph N/A Rain Rain
8:15 PM 45.3 °F 37.1 °F 44.1 °F 95% 29.57 in 5.0 mi West 21.9 mph 31.1 mph N/A   Overcast
8:35 PM 41.0 °F 31.9 °F 38.3 °F 90% 29.59 in 10.0 mi WSW 19.6 mph 34.5 mph N/A   Overcast
8:55 PM 40.3 °F 31.6 °F 38.1 °F 92% 29.61 in 10.0 mi West 17.3 mph 23.0 mph N/A   Overcast
9:15 PM 39.4 °F 29.5 °F 36.7 °F 90% 29.61 in 10.0 mi West 20.7 mph 25.3 mph N/A   Overcast
9:35 PM 39.2 °F 29.6 °F 36.7 °F 91% 29.62 in 10.0 mi West 19.6 mph 25.3 mph N/A   Overcast
9:55 PM 38.1 °F 28.8 °F 35.6 °F 91% 29.62 in 10.0 mi West 17.3 mph 26.5 mph N/A   Overcast
10:15 PM 37.6 °F 28.8 °F 35.1 °F 91% 29.64 in 10.0 mi West 15.0 mph 26.5 mph N/A   Overcast
10:35 PM 36.7 °F 26.6 °F 33.8 °F 89% 29.66 in 10.0 mi West 18.4 mph 34.5 mph N/A   Overcast
10:55 PM 36.0 °F 25.6 °F 33.3 °F 90% 29.67 in 10.0 mi West 18.4 mph 28.8 mph N/A   Overcast
11:15 PM 35.2 °F 25.0 °F 33.3 °F 92% 29.68 in 10.0 mi WSW 17.3 mph 28.8 mph N/A   Overcast
11:35 PM 33.6 °F 22.2 °F 31.8 °F 93% 29.70 in 10.0 mi West 19.6 mph 26.5 mph N/A   Overcast
11:55 PM 32.4 °F 20.9 °F 30.9 °F 94% 29.70 in 10.0 mi West 18.4 mph 26.5 mph N/A   Overcast